This demonstration page uses our WeatherBlox Daily Observations layout. Learn more.

Left ArrowRight Arrow

Hourly Observations for February 28, 2019

Temp ( °F °C ) Dew Point ( °F °C ) Humidity (%) Winds ( mph kmh ) Pressure ( in mb ) Visibility ( mi km ) Precip ( " mm )
12:15 am 00:15 Cloudy 36 2 34 1 93 93 Calm 29.98 1015 10 16.0934 0 0
12:35 am 00:35 Cloudy 36 2 34 1 93 93 Calm 29.97 1015 10 16.0934 0 0
12:55 am 00:55 Mostly Cloudy 36 2 34 1 93 93 Calm 29.97 1015 10 16.0934 0 0
1:15 am 01:15 Mostly Cloudy 36 2 34 1 93 93 Calm 29.97 1015 10 16.0934 0 0
5:35 am 05:35 Cloudy 37 3 34 1 87 87 NNE 5 7 30.07 1018 10 16.0934 0 0
5:55 am 05:55 Cloudy 41 5 34 1 76 76 N 15 24 30.06 1018 10 16.0934 0 0
6:15 am 06:15 Cloudy 41 5 34 1 76 76 N 13 20 30.07 1018 10 16.0934 0 0
6:35 am 06:35 Partly Cloudy 41 5 32 0 70 70 NNW 15 24 30.09 1019 10 16.0934 0 0
6:55 am 06:55 Sunny 39 4 32 0 75 75 N 10 17 30.11 1019 10 16.0934 0 0
7:15 am 07:15 Partly Cloudy 39 4 32 0 75 75 N 14 22 30.12 1020 10 16.0934 0 0
7:35 am 07:35 Mostly Cloudy 39 4 32 0 75 75 N 13 20 30.14 1021 10 16.0934 0 0
7:55 am 07:55 Cloudy 41 5 30 -1 66 66 NNE 16 26 30.15 1021 10 16.0934 0 0
8:15 am 08:15 Mostly Cloudy 39 4 30 -1 70 70 NNE 15 24 30.17 1022 10 16.0934 0 0
8:35 am 08:35 Partly Cloudy 37 3 28 -2 70 70 N 18 30 30.17 1022 10 16.0934 0 0
8:55 am 08:55 Sunny 39 4 28 -2 65 65 NNE 13 20 30.18 1022 10 16.0934 0 0
9:15 am 09:15 Sunny 37 3 27 -3 65 65 N 15 24 30.18 1022 10 16.0934 0 0
9:35 am 09:35 Sunny 39 4 27 -3 61 61 N 18 30 30.17 1022 10 16.0934 0 0
9:55 am 09:55 Sunny 39 4 27 -3 61 61 N 18 30 30.19 1022 10 16.0934 0 0
10:35 am 10:35 Sunny 41 5 27 -3 57 57 NNE 12 19 30.19 1022 10 16.0934 0 0
10:55 am 10:55 Sunny 41 5 27 -3 57 57 N 16 26 30.19 1022 10 16.0934 0 0
11:15 am 11:15 Sunny 41 5 27 -3 57 57 NNW 14 22 30.19 1022 10 16.0934 0 0
11:35 am 11:35 Sunny 41 5 25 -4 53 53 NNE 10 17 30.19 1022 10 16.0934 0 0
11:55 am 11:55 Sunny 43 6 25 -4 49 49 NE 13 20 30.2 1023 10 16.0934 0 0
12:15 pm 12:15 Sunny 43 6 25 -4 49 49 NNE 9 15 30.21 1023 10 16.0934 0 0
12:35 pm 12:35 Sunny 43 6 23 -5 46 46 N 13 20 30.2 1023 10 16.0934 0 0
12:55 pm 12:55 Sunny 43 6 23 -5 46 46 NNW 12 19 30.19 1022 10 16.0934 0 0
1:15 pm 13:15 Sunny 43 6 23 -5 46 46 N 9 15 30.19 1022 10 16.0934 0 0
1:35 pm 13:35 Sunny 43 6 23 -5 46 46 NNW 5 7 30.18 1022 10 16.0934 0 0
1:55 pm 13:55 Sunny 45 7 23 -5 42 42 N 8 13 30.18 1022 10 16.0934 0 0
2:15 pm 14:15 Sunny 43 6 21 -6 42 42 N 8 13 30.18 1022 10 16.0934 0 0
2:35 pm 14:35 Sunny 45 7 21 -6 39 39 NW 3 6 30.18 1022 10 16.0934 0 0
2:55 pm 14:55 Sunny 45 7 21 -6 39 39 NNE 7 11 30.18 1022 10 16.0934 0 0
3:15 pm 15:15 Sunny 45 7 21 -6 39 39 NNE 6 9 30.17 1022 10 16.0934 0 0
3:35 pm 15:35 Sunny 45 7 21 -6 39 39 NNW 9 15 30.17 1022 10 16.0934 0 0
3:55 pm 15:55 Sunny 45 7 21 -6 39 39 NNE 5 7 30.17 1022 10 16.0934 0 0
4:15 pm 16:15 Sunny 45 7 21 -6 39 39 ENE 7 11 30.17 1022 10 16.0934 0 0
4:35 pm 16:35 Sunny 45 7 21 -6 39 39 N 7 11 30.17 1022 10 16.0934 0 0
4:55 pm 16:55 Sunny 43 6 21 -6 42 42 Calm 30.17 1022 10 16.0934 0 0
5:15 pm 17:15 Sunny 43 6 21 -6 42 42 N 3 6 30.18 1022 10 16.0934 0 0
5:35 pm 17:35 Sunny 43 6 21 -6 42 42 NNE 5 7 30.18 1022 10 16.0934 0 0
5:55 pm 17:55 Sunny 43 6 23 -5 46 46 NE 3 6 30.18 1022 10 16.0934 0 0
6:15 pm 18:15 Clear 43 6 23 -5 46 46 NE 9 15 30.18 1022 10 16.0934 0 0
6:35 pm 18:35 Clear 41 5 23 -5 49 49 ENE 6 9 30.19 1022 10 16.0934 0 0
6:55 pm 18:55 Clear 41 5 23 -5 49 49 ENE 6 9 30.2 1023 10 16.0934 0 0
7:15 pm 19:15 Partly Cloudy 41 5 21 -6 45 45 NE 6 9 30.2 1023 10 16.0934 0 0
7:35 pm 19:35 Mostly Cloudy 41 5 23 -5 49 49 ENE 6 9 30.19 1022 10 16.0934 0 0
7:55 pm 19:55 Cloudy 41 5 23 -5 49 49 NE 5 7 30.2 1023 10 16.0934 0 0
8:15 pm 20:15 Cloudy 41 5 21 -6 45 45 ENE 5 7 30.21 1023 10 16.0934 0 0
8:35 pm 20:35 Cloudy 41 5 23 -5 49 49 E 5 7 30.21 1023 10 16.0934 0 0
8:55 pm 20:55 Cloudy 41 5 23 -5 49 49 E 5 7 30.22 1023 10 16.0934 0 0
9:15 pm 21:15 Cloudy 39 4 23 -5 52 52 E 9 15 30.24 1024 10 16.0934 0 0
9:35 pm 21:35 Cloudy 39 4 23 -5 52 52 E 6 9 30.24 1024 10 16.0934 0 0
9:55 pm 21:55 Cloudy 37 3 23 -5 56 56 ESE 8 13 30.24 1024 10 16.0934 0 0
10:15 pm 22:15 Cloudy 37 3 23 -5 56 56 ESE 7 11 30.23 1024 10 16.0934 0 0
10:35 pm 22:35 Cloudy 37 3 23 -5 56 56 ESE 7 11 30.23 1024 10 16.0934 0 0
10:55 pm 22:55 Cloudy 37 3 23 -5 56 56 ESE 8 13 30.23 1024 10 16.0934 0 0
11:15 pm 23:15 Cloudy 37 3 23 -5 56 56 E 7 11 30.23 1024 10 16.0934 0 0
11:35 pm 23:35 Cloudy 37 3 23 -5 56 56 ESE 6 9 30.23 1024 10 16.0934 0 0
11:55 pm 23:55 Cloudy 37 3 23 -5 56 56 SE 7 11 30.23 1024 10 16.0934 0 0

Powered by AerisWeather